Weather in Aksin'yino

Russia / Tula Oblast     54°30′18″N   38°20′46″E
temp.,
°C
wind,
m/s
gust,
m/s
humid.,
%
clouds,
%
prec.,
mm/h
press.,
hPa
HPBL,
m
26 july, mon
mon2600:00+15sw226144 0.0 102312
03:00+14wsw226544 0.0 102315
06:00+15sw116843 0.0 102311
09:00+18wsw1160100 0.0 1024139
12:00+21sw345493 0.0 1024319
15:00+23nne115042 0.0 1023386
18:00+22wsw335876 0.0 1022198
21:00+18sw337067 0.1 102231
27 july, tue
tue2700:00+17sw337763 0.1 102233
03:00+17w347699 0.1 102278
06:00+17w33825 0.0 102371
09:00+22w336319 0.1 1022430
12:00+26wnw23475 0.0 10211717
15:00+24n225485 0.0 102027
18:00+21nw6875100 0.4 1020234
21:00+19ssw336749 1.5 102025
28 july, wed
wed2800:00+17sw249080 0.5 102055
03:00+18sw238336 0.5 101943
06:00+17ssw23875 0.0 101873
09:00+23ssw35635 0.0 1017392
12:00+28ssw564231 0.0 10151738
15:00+28ssw6838100 0.0 10132277
18:00+21wsw61170100 0.1 1013522
21:00+18ssw3788100 0.2 1012253
29 july, thu
thu2900:00+18sw4108894 0.1 1010401
03:00+16wsw4119818 0.2 1009257
06:00+17w411922 0.0 1009295
09:00+23w686742 0.0 1008608
12:00+27wnw69477 0.0 10081883
15:00+28w6840100 0.0 10082342
18:00+27wsw575136 0.0 1007813
21:00+21wsw357198 0.0 100880
30 july, fri
fri3000:00+20wsw347187 0.0 100845
03:00+19w1274100 0.0 100712
06:00+18w249088 0.8 1008109
09:00+22wnw23742 0.8 1008591
12:00+25wnw556472 0.4 10081251
15:00+27wnw464832 0.5 10072027
18:00+26wnw46462 0.0 1008905
21:00+19wnw22615 0.0 100913